Regional Weather Roundup
Issued by NWS Cleveland, OH

Home | Current Version | Previous Version | Graphics & Text | Print | Product List | Glossary On
Versions: 1 2 3 4 5 6 7 8 9 10 11 12 13 14 15 16 17 18 19 20 21 22 23 24 25 26 27 28 29 30 31 32 33 34 35 36 37 38 39 40 41 42 43 44 45 46 47 48 49 50
773
ASUS41 KCLE 300002
RWRCLE
OHIO REGIONAL WEATHER ROUNDUP
NATIONAL WEATHER SERVICE CLEVELAND, OH
800 PM EDT FRI APR 29 2016

NOTE: "FAIR" INDICATES FEW OR NO CLOUDS BELOW 12,000 FEET WITH NO
SIGNIFICANT WEATHER AND/OR OBSTRUCTIONS TO VISIBILITY.

OHZ001>008-015>018-024>027-034-035-043-044-300100-
   NORTHWEST OHIO

CITY           SKY/WX    TMP DP  RH WIND       PRES   REMARKS
DEFIANCE       CLOUDY    52  42  69 E8        30.10S
FINDLAY        CLOUDY    50  39  66 NE12      30.10R
TOLEDO EXPRESS CLOUDY    48  39  71 E7        30.12R
TOLEDO EXEC    CLOUDY    48  39  71 E7        30.13S
LIMA           CLOUDY    52  46  80 N5        30.08S
$$

OHZ009>014-019>023-028>033-038-089-300100-
   NORTHEAST OHIO

CITY           SKY/WX    TMP DP  RH WIND       PRES   REMARKS
CLE-HOPKINS    CLOUDY    45  39  79 N9        30.15R
CLE-LAKEFRONT  LGT RAIN  45  40  82 N12       30.13R
CUY CO. ARPT   CLOUDY    45  39  81 NE7       30.12R
LORAIN-ELYRIA  MOCLDY    43  37  79 N6        30.13R
ASHTABULA      MOCLDY    42  35  76 VRB3      30.11R
AKRON-CANTON   CLOUDY    47  41  80 NW8       30.09R
WOOSTER        CLOUDY    44  41  89 NW8       30.11R
MANSFIELD      CLOUDY    45  41  86 N7        30.10R
YOUNGSTOWN     CLOUDY    43  40  89 N9        30.09R
$$

OHZ042-051>053-060>062-070>072-077>081-300100-
  SOUTHWEST OHIO

CITY           SKY/WX    TMP DP  RH WIND       PRES   REMARKS
CINC-COVINGTON CLOUDY    63  49  60 W3        30.04R
CINC-LUNKEN    CLOUDY    64  49  57 NE5       30.04R
HAMILTON       MOCLDY    62  50  64 N9        30.06R
DAYTON         CLOUDY    54  47  77 N12       30.08R
WRIGHT-PAT AFB CLOUDY    57  49  76 N8        30.07R
DAYTON GENERAL PTCLDY    57  47  69 NE8       30.05R
WILMINGTON     CLOUDY    57  49  74 N8        30.06R
$$

OHZ036-037-039>041-045>050-054>059-063>069-073>076-082>088-300100-
  CENTRAL AND SOUTHEAST OHIO

CITY           SKY/WX    TMP DP  RH WIND       PRES   REMARKS
COLUMBUS       CLOUDY    52  46  80 N10       30.07R
OSU AIRPORT    CLOUDY    52  46  80 N10       30.07R
BOLTON FIELD   NOT AVBL
RICKENBACK AFB CLOUDY    55  47  75 N13       30.07R
NEWARK         CLOUDY    55  45  68 N9        30.08R
MARION         CLOUDY    49  42  77 NE8       30.10S
LANCASTER      CLOUDY    56  48  74 NE8       30.08R
ZANESVILLE     CLOUDY    55  47  74 NE8       30.07R
NEW PHILLY     CLOUDY    51  43  74 N8        30.10R
$$




USA.gov is the U.S. government's official web portal to all federal, state and local government web resources and services.